sat.trackr.live / text

‹ back to catalog

STARLINK-5702

NORAD 55622 · 2023-020BF

PAYLOAD ACTIVE UNKNOWN

§ Identity

Operator
Country
US
Launch date
2023-02-12
Launch site
AFETR
Launch vehicle
Mass (kg)
RCS (m²)

Purposes: comms

External: N2YO · Heavens-Above · Gunter

§ Orbital elements

Epoch: 2026-05-24T10:28:55.651872Z

Period
94.27 min
Inclination
43.0017°
Eccentricity
0.0001423
Mean motion
15.27586033 rev/d
Perigee alt
482.1 km
Apogee alt
484.0 km
Semi-major
6,861.2 km
B*
2.0434e-5
RAAN
286.4654°
Arg perigee
283.9804°
Mean anomaly
76.0889°
Rev number
18,062

§ Raw data

STARLINK-57021 55622U 23020BF  26144.43675523  .00000300  00000+0  20434-4 0  99982 55622  43.0017 286.4654 0001423 283.9804  76.0889 15.27586033180621

JSON: /api/v1/satellites/55622 · /tle

For live sub-satellite position, see the globe view (requires WebGL).

§ Visibility from observer

Set your observer location to see the next 7 days of passes ≥ 10°. The values pass through the URL so the page stays shareable.

No JS? Fill the form by hand. The geolocation button needs JavaScript.